TimePDT,TemperatureF,Dew PointF,Humidity,Sea Level PressureIn,VisibilityMPH,Wind Direction,Wind SpeedMPH,Gust SpeedMPH,PrecipitationIn,Events,Conditions,WindDirDegrees,DateUTC
12:53 AM,41.0,33.1,73,30.11,10.0,Calm,Calm,-,N/A,,Clear,0,2013-04-29 07:53:00
1:53 AM,39.0,32.0,76,30.10,9.0,Calm,Calm,-,N/A,,Clear,0,2013-04-29 08:53:00
2:53 AM,39.9,32.0,73,30.09,10.0,NW,3.5,-,N/A,,Clear,310,2013-04-29 09:53:00
3:53 AM,36.0,32.0,86,30.10,10.0,SW,3.5,-,N/A,,Clear,230,2013-04-29 10:53:00
4:53 AM,35.1,30.9,85,30.08,10.0,Calm,Calm,-,N/A,,Clear,0,2013-04-29 11:53:00
5:53 AM,34.0,30.0,85,30.09,10.0,Calm,Calm,-,N/A,,Clear,0,2013-04-29 12:53:00
6:53 AM,39.0,35.1,86,30.09,10.0,Calm,Calm,-,N/A,,Scattered Clouds,0,2013-04-29 13:53:00
7:53 AM,48.0,39.9,74,30.08,10.0,West,10.4,-,N/A,,Mostly Cloudy,280,2013-04-29 14:53:00
8:53 AM,48.9,39.9,71,30.09,10.0,West,9.2,-,N/A,,Overcast,260,2013-04-29 15:53:00
9:53 AM,51.1,37.9,61,30.07,10.0,WNW,9.2,-,N/A,,Overcast,290,2013-04-29 16:53:00
10:53 AM,54.0,39.0,57,30.06,10.0,WNW,17.3,21.9,N/A,,Overcast,290,2013-04-29 17:53:00
11:53 AM,55.9,39.0,53,30.05,10.0,WNW,17.3,-,N/A,,Overcast,290,2013-04-29 18:53:00
12:53 PM,59.0,39.0,48,30.04,10.0,West,18.4,-,N/A,,Mostly Cloudy,280,2013-04-29 19:53:00
1:53 PM,57.0,39.0,51,30.04,10.0,NNW,10.4,18.4,N/A,,Overcast,330,2013-04-29 20:53:00
2:53 PM,57.9,34.0,41,30.01,10.0,West,15.0,-,N/A,,Scattered Clouds,280,2013-04-29 21:53:00
3:53 PM,57.9,35.1,42,30.01,10.0,NNW,15.0,-,N/A,,Mostly Cloudy,340,2013-04-29 22:53:00
4:53 PM,59.0,33.1,38,30.00,10.0,NW,16.1,20.7,N/A,,Partly Cloudy,320,2013-04-29 23:53:00
5:53 PM,57.0,28.0,33,30.01,10.0,NNW,18.4,-,N/A,,Clear,330,2013-04-30 00:53:00
6:53 PM,55.0,27.0,34,30.00,10.0,NNW,13.8,-,N/A,,Clear,340,2013-04-30 01:53:00
7:53 PM,51.1,27.0,39,29.98,10.0,NW,12.7,-,N/A,,Clear,320,2013-04-30 02:53:00
8:53 PM,46.9,28.9,50,30.00,10.0,NW,8.1,-,N/A,,Clear,310,2013-04-30 03:53:00
9:53 PM,42.1,30.9,65,30.01,10.0,WNW,8.1,-,N/A,,Clear,290,2013-04-30 04:53:00
10:53 PM,41.0,30.9,67,29.99,10.0,SW,5.8,-,N/A,,Clear,220,2013-04-30 05:53:00
11:53 PM,41.0,30.0,65,29.99,10.0,NNW,5.8,-,N/A,,Clear,340,2013-04-30 06:53:00